Tracking 27428 objects as of 31-May-2023
HD Live streaming from Space Station
objects crossing your sky now

COSMOS 482 DESCENT CRAFT

Track COSMOS 482 DESCENT CRAFT now!
10-day predictions
COSMOS 482 DESCENT CRAFT is classified as:


NORAD ID: 6073
Int'l Code: 1972-023E
Perigee: 201.2 km
Apogee: 1,631.3 km
Inclination: 52.0 °
Period: 103.2 minutes
Semi major axis: 7287 km
RCS: 0.7153 m2 (medium)
Launch date: March 31, 1972
Source: Commonwealth of Independent States (former USSR) (CIS)
Launch site: TYURATAM MISSILE AND SPACE COMPLEX (TTMTR)
Your satellite tracking list
Your tracking list is empty




NASA's NSSDC Master Catalog

Two Line Element Set (TLE):
1 06073U 72023E   23151.51833957  .00078643  71277-5  21043-3 0  9993
2 06073  52.0120 119.3114 0981169 358.0820   1.6462 13.95588022647007
Source of the keplerian elements: AFSPC